User: anonymous   Login
Location: Kott?ru
(16.6209°N, 80.6208°E)
Time: 06:11:20
(UTC+00:00)
Language:

OPS 4078 - Orbit

View from above orbital plane
View from above orbital plane
View from above satellite
View from above satellite

Ground track
Ground track

The orbit data is extracted from the following two-line orbital elements,

1  3510U 68092A   24197.87485597  .00000297  00000-0  13698-3 0  9998
2  3510  98.4885 325.5788 0029214 223.7236 136.1631 14.27729194897577
Epoch (UTC): 15 July 2024 20:59:47
Eccentricity: 0.0029214
inclination: 98.4885°
perigee height: 778 km
apogee height: 820 km
right ascension of ascending node: 325.5788°
argument of perigee: 223.7236°
revolutions per day: 14.27729194
mean anomaly at epoch: 136.1631°
orbit number at epoch: 89757

The dashed part of the orbit path shows where the satellite is in the earth's shadow,  

DLR